Weather observations for the past three days for
Rutland-Southern Vermont Regional Airport
| Date | Time (edt) | Wind (kph) | Vis. (km) | Weather | Sky Cond. | Temperature (ºC) | Relative Humidity | Wind Chill (°C) | Heat Index (°C) | Pressure | Precipitation (cm) | ||||||
|---|---|---|---|---|---|---|---|---|---|---|---|---|---|---|---|---|---|
| Air | Dwpt | 6 hour | altimeter (cm) | sea level (mb) | 1 hr | 3 hr | 6 hr | ||||||||||
| Max. | Min. | ||||||||||||||||
| 05 | 20:56 | N 7 | 16.09 | Overcast | FEW027 SCT037 OVC085 | 17.8 | 15 | 84% | 76.05 | 1013.2 | |||||||
| 05 | 19:56 | N 13 | 16.09 | Overcast | OVC070 | 17.8 | 15.6 | 20.6 | 17.8 | 87% | 76.02 | 1013.0 | 0.05 | ||||
| 05 | 18:56 | N 11 | 16.09 | Overcast | OVC080 | 18.3 | 15.6 | 84% | 75.97 | 1012.4 | |||||||
| 05 | 17:56 | N 15 | 16.09 | Overcast | SCT065 OVC080 | 18.9 | 15.6 | 81% | 75.97 | 1012.1 | |||||||
| 05 | 16:56 | NW 7 | 16.09 | Overcast | OVC065 | 19.4 | 16.1 | 81% | 75.95 | 1012.0 | 0.05 | ||||||
| 05 | 15:56 | NW 11 | 16.09 | Overcast | SCT055 OVC070 | 20 | 16.1 | 78% | 75.92 | 1011.5 | |||||||
| 05 | 13:56 | N 20 | 16.09 | Overcast | SCT022 BKN036 OVC046 | 19.4 | 15.6 | 19.4 | 15.6 | 79% | 75.92 | 1011.5 | |||||
| 05 | 12:56 | NW 13 | 16.09 | Overcast | BKN019 OVC065 | 18.9 | 15.6 | 81% | 75.92 | 1011.5 | |||||||
| 05 | 11:56 | N 15 | 16.09 | Light Rain | FEW013 BKN025 OVC055 | 18.3 | 15.6 | 84% | 75.95 | 1011.8 | |||||||
| 05 | 10:56 | Vrbl 6 | 16.09 | Overcast | BKN014 OVC019 | 17.8 | 15.6 | 87% | 75.95 | 1011.8 | |||||||
| 05 | 09:56 | N 9 | 16.09 | Overcast | BKN012 BKN028 OVC060 | 17.8 | 16.1 | 90% | 75.95 | 1011.8 | |||||||
| 05 | 08:56 | NE 7 | 16.09 | Overcast | OVC010 | 16.7 | 15.6 | 93% | 75.95 | 1011.6 | |||||||
| 05 | 07:56 | Calm | 16.09 | Overcast | BKN017 BKN024 OVC034 | 15.6 | 15 | 16.1 | 13.3 | 96% | 75.9 | 1011.2 | |||||
| 05 | 06:56 | Calm | 16.09 | Overcast | OVC020 | 15 | 14.4 | 96% | 75.87 | 1010.6 | |||||||
| 05 | 05:56 | Calm | 16.09 | Overcast | OVC022 | 14.4 | 14.4 | 100% | 75.84 | 1010.5 | |||||||
| 05 | 04:56 | Calm | 16.09 | Partly Cloudy | SCT028 | 13.3 | 13.3 | 100% | 75.84 | 1010.3 | |||||||
| 05 | 03:56 | SE 7 | 16.09 | Fair | CLR | 13.9 | 13.9 | 100% | 75.84 | 1010.3 | |||||||
| 05 | 02:56 | Calm | 16.09 | Fair | CLR | 14.4 | 14.4 | 100% | 75.84 | 1010.3 | |||||||
| 05 | 01:56 | Calm | 16.09 | Mostly Cloudy | BKN042 BKN085 | 15.6 | 15 | 19.4 | 15.6 | 96% | 75.87 | 1010.6 | |||||
| 05 | 00:56 | Calm | 16.09 | Mostly Cloudy | BKN036 | 16.7 | 15.6 | 93% | 75.87 | 1010.6 | |||||||
| 04 | 23:56 | E 6 | 16.09 | Overcast | OVC085 | 17.2 | 15.6 | 90% | 75.9 | 1010.8 | |||||||
| 04 | 22:56 | Vrbl 6 | 16.09 | Overcast | OVC085 | 18.9 | 15 | 78% | 75.9 | 1010.8 | |||||||
| 04 | 21:56 | Calm | 16.09 | Overcast | BKN050 OVC090 | 18.3 | 16.7 | 90% | 75.9 | 1011.1 | |||||||
| 04 | 20:56 | NW 6 | 16.09 | Overcast | OVC055 | 19.4 | 16.1 | 81% | 75.9 | 1011.0 | |||||||
| 04 | 19:56 | Calm | 16.09 | Overcast | SCT055 OVC090 | 19.4 | 17.8 | 24.4 | 19.4 | 91% | 75.87 | 1010.8 | |||||
| 04 | 18:56 | Calm | 16.09 | Mostly Cloudy | BKN090 | 21.1 | 16.7 | 76% | 75.84 | 1010.5 | |||||||
| 04 | 17:56 | NW 6 | 16.09 | Overcast | SCT070 OVC085 | 22.2 | 16.7 | 71% | 75.82 | 1010.2 | |||||||
| 04 | 16:56 | NW 9 | 16.09 | Overcast | OVC085 | 22.8 | 16.1 | 66% | 75.84 | 1010.4 | |||||||
| 04 | 15:56 | N 15 | 16.09 | Overcast | SCT075 OVC090 | 23.9 | 16.1 | 62% | 25 | 75.84 | 1010.3 | ||||||
| 04 | 14:56 | N 9 | 16.09 | Overcast | FEW048 BKN060 OVC075 | 22.8 | 15.6 | 64% | 75.87 | 1010.5 | |||||||
| 04 | 13:56 | N 15 | 16.09 | Overcast | FEW040 OVC080 | 23.9 | 15.6 | 23.9 | 16.1 | 60% | 25 | 75.87 | 1010.5 | ||||
| 04 | 12:56 | NW 15 | 16.09 | Mostly Cloudy | FEW040 BKN070 | 23.3 | 15 | 60% | 75.9 | 1010.8 | |||||||
| 04 | 11:56 | NW 13 | 16.09 | Mostly Cloudy | SCT037 BKN046 BKN065 | 21.7 | 14.4 | 63% | 75.92 | 1011.4 | |||||||
| 04 | 10:56 | N 13 | 16.09 | Partly Cloudy | SCT028 SCT035 | 22.2 | 16.7 | 71% | 75.95 | 1011.5 | |||||||
| 04 | 09:56 | Calm | 16.09 | Fair | CLR | 21.1 | 17.2 | 79% | 75.95 | 1011.5 | |||||||
| 04 | 08:56 | Calm | 16.09 | Fair | CLR | 18.9 | 16.1 | 84% | 75.95 | 1011.5 | |||||||
| 04 | 07:56 | Calm | 16.09 | Fair | CLR | 16.1 | 15 | 16.7 | 14.4 | 93% | 75.95 | 1011.7 | |||||
| 04 | 06:56 | SE 7 | 16.09 | Mostly Cloudy | BKN055 | 14.4 | 14.4 | 100% | 75.92 | 1011.2 | |||||||
| 04 | 05:56 | SE 11 | 16.09 | Overcast | OVC060 | 15 | 13.9 | 93% | 75.87 | 1010.7 | |||||||
| 04 | 04:56 | E 9 | 16.09 | A Few Clouds | FEW045 | 15 | 14.4 | 96% | 75.84 | 1010.3 | |||||||
| 04 | 03:56 | SE 6 | 16.09 | Mostly Cloudy | BKN038 | 15.6 | 15 | 96% | 75.84 | 1010.5 | |||||||
| 04 | 02:56 | SE 6 | 16.09 | A Few Clouds | FEW070 | 15.6 | 15 | 96% | 75.84 | 1010.3 | |||||||
| 04 | 01:56 | E 15 | 16.09 | Mostly Cloudy | BKN080 | 16.7 | 15.6 | 21.1 | 16.7 | 93% | 75.9 | 1011.0 | |||||
| 04 | 00:56 | SE 15 | 16.09 | A Few Clouds | FEW080 | 16.7 | 15.6 | 93% | 75.95 | 1011.6 | |||||||
| 03 | 23:56 | SE 11 | 16.09 | Mostly Cloudy | BKN080 | 17.2 | 16.1 | 93% | 75.95 | 1011.6 | |||||||
| 03 | 22:56 | S 7 | 14.48 | Overcast | OVC070 | 17.2 | 17.2 | 100% | 75.97 | 1012.0 | |||||||
| 03 | 21:56 | SE 6 | 16.09 | A Few Clouds | FEW060 | 18.9 | 17.8 | 93% | 75.97 | 1012.1 | |||||||
| 03 | 20:56 | Calm | 16.09 | Mostly Cloudy | SCT065 BKN080 | 21.1 | 17.2 | 79% | 75.97 | 1011.9 | |||||||
| 03 | 19:56 | Calm | 16.09 | Fair | CLR | 20.6 | 18.9 | 26.1 | 20.6 | 90% | 75.9 | 1011.0 | |||||
| 03 | 18:56 | S 6 | 16.09 | Fair | CLR | 22.8 | 20 | 84% | 75.87 | 1010.7 | |||||||
| 03 | 17:56 | SW 9 | 16.09 | A Few Clouds | FEW080 | 25 | 20 | 74% | 26 | 75.9 | 1010.9 | ||||||
| 03 | 16:56 | SW 7 | 16.09 | A Few Clouds | FEW030 | 25.6 | 20 | 71% | 27 | 75.9 | 1011.0 | ||||||
| 03 | 15:56 | SW 15 | 16.09 | Mostly Cloudy | SCT029 BKN036 | 26.1 | 19.4 | 67% | 27 | 75.9 | 1011.1 | ||||||
| 03 | 14:56 | W 11 | 16.09 | Mostly Cloudy | BKN023 BKN030 BKN050 | 25 | 20 | 74% | 26 | 75.92 | 1011.4 | ||||||
| 03 | 13:56 | SW 6 | 16.09 | Overcast | BKN021 OVC050 | 23.3 | 19.4 | 23.9 | 17.8 | 79% | 75.97 | 1011.9 | |||||
| 03 | 12:56 | S 7 | 16.09 | Overcast | OVC019 | 22.2 | 19.4 | 84% | 76.02 | 1012.4 | |||||||
| 03 | 11:56 | W 13 | 16.09 | Mostly Cloudy | SCT015 BKN038 BKN110 | 22.2 | 19.4 | 84% | 76.05 | 1012.7 | |||||||
| 03 | 10:56 | S 9 | 16.09 | Overcast | FEW015 SCT024 OVC038 | 21.1 | 18.9 | 87% | 76.07 | 1013.1 | |||||||
| 03 | 09:56 | SE 6 | 16.09 | Overcast | SCT017 OVC031 | 18.9 | 17.2 | 90% | 76.1 | 1013.5 | |||||||
| 03 | 08:56 | SE 7 | 16.09 | Overcast | BKN021 OVC027 | 18.3 | 16.1 | 87% | 76.1 | 1013.5 | |||||||
| 03 | 07:56 | SE 9 | 16.09 | Overcast | OVC021 | 17.8 | 15.6 | 17.8 | 17.2 | 87% | 76.1 | 1013.8 | |||||
| 03 | 06:56 | SE 15 | 16.09 | Overcast | OVC018 | 17.2 | 15.6 | 90% | 76.1 | 1013.9 | |||||||
| 03 | 05:56 | SE 13 | 16.09 | Overcast | OVC020 | 17.2 | 15.6 | 90% | 76.1 | 1013.6 | |||||||
| 03 | 04:56 | E 17 | 16.09 | Overcast | OVC022 | 17.2 | 15.6 | 90% | 76.1 | 1013.8 | |||||||
| 03 | 03:56 | SE 15 | 16.09 | Overcast | OVC022 | 17.2 | 15.6 | 90% | 76.12 | 1014.2 | |||||||
| 03 | 02:56 | E 17 | 16.09 | Overcast | OVC028 | 17.2 | 15.6 | 90% | 76.15 | 1014.3 | |||||||
| 03 | 01:56 | SE 19 | 16.09 | Light Rain | OVC026 | 17.2 | 15.6 | 20 | 17.2 | 90% | 76.17 | 1014.7 | |||||
| 03 | 00:56 | SE 19 | 16.09 | Overcast | OVC030 | 18.9 | 14.4 | 75% | 76.2 | 1015.1 | |||||||
| 02 | 23:56 | SE 17 | 16.09 | Overcast | OVC034 | 18.9 | 13.9 | 73% | 76.2 | 1015.1 | |||||||
| 02 | 22:56 | SE 26 | 16.09 | Overcast | OVC036 | 19.4 | 14.4 | 73% | 76.28 | 1016.1 | |||||||
| Date | Time (edt) | Wind (kph) | Vis. (km) | Weather | Sky Cond. | Air | Dwpt | Max. | Min. | Relative Humidity | Wind Chill (°C) | Heat Index (°C) | altimeter (cm) | sea level (mb) | 1 hr | 3 hr | 6 hr |
| 6 hour | |||||||||||||||||
| Temperature (ºC) | Pressure | Precipitation (cm) | |||||||||||||||